This is the latest recevied weather packets stored in our database for station/object VE3TEJ. If no packets are shown the sender has not sent any weather packets the latest 10 day(s).
| Time | Temp. | Humidity | Pressure | Rain* | Wind** | Luminosity | Snow |
|---|---|---|---|---|---|---|---|
| 1777732937 | 5.56° C | 57% | 1015 hPa | 0 mm | - | - | - |
| 1777732637 | 5° C | 56% | 1015 hPa | 0 mm | - | - | - |
| 1777732337 | 6.67° C | 56% | 1014.9 hPa | 0 mm | - | - | - |
| 1777732037 | 6.11° C | 56% | 1015.1 hPa | 0 mm | - | - | - |
| 1777731737 | 6.11° C | 58% | 1015 hPa | 0 mm | - | - | - |
| 1777731437 | 5.56° C | 57% | 1015 hPa | 0 mm | - | - | - |
| 1777731136 | 6.11° C | 61% | 1015.1 hPa | 0 mm | - | - | - |
| 1777730836 | 5.56° C | 61% | 1015.2 hPa | 0 mm | - | - | - |
| 1777730536 | 6.11° C | 61% | 1015.3 hPa | 0 mm | - | - | - |
| 1777730237 | 5° C | 63% | 1015.3 hPa | 0 mm | - | - | - |
| 1777729937 | 5.56° C | 63% | 1015.2 hPa | 0 mm | - | - | - |
| 1777729636 | 4.44° C | 63% | 1015.2 hPa | 0 mm | - | - | - |
| 1777729336 | 5° C | 62% | 1015.2 hPa | 0 mm | - | - | - |
| 1777729036 | 5.56° C | 63% | 1015.2 hPa | 0 mm | - | - | - |
| 1777728738 | 4.44° C | 65% | 1015.3 hPa | 0 mm | - | - | - |
| 1777728437 | 4.44° C | 66% | 1015.4 hPa | 0 mm | - | - | - |
| 1777728138 | 3.89° C | 68% | 1015.1 hPa | 0 mm | - | - | - |
| 1777727838 | 3.33° C | 68% | 1015.3 hPa | 0 mm | - | - | - |
| 1777727538 | 3.89° C | 67% | 1015.4 hPa | 0 mm | - | - | - |
| 1777727238 | 4.44° C | 64% | 1015.1 hPa | 0 mm | - | - | - |
| 1777726937 | 4.44° C | 64% | 1015.1 hPa | 0 mm | - | - | - |
| 1777726637 | 4.44° C | 65% | 1015 hPa | 0 mm | - | - | - |
| 1777726337 | 4.44° C | 64% | 1015.3 hPa | 0 mm | - | - | - |
| 1777726037 | 4.44° C | 65% | 1015.3 hPa | 0 mm | - | - | - |
| 1777725738 | 4.44° C | 64% | 1015.1 hPa | 0 mm | - | - | - |
* Rain latest hour (hover to see other rain measurements)
** Current wind speed in m/s (hover to see current wind gust speed)